HISTORICAL SENSOR DATA

Sensor Data Report

DB LIVE
CURRENT TIME--:--:--
DEVICE NETWORK Gateway Status
13 ESP · realtime ~1s · history 60s
Weather WS-MOD-01
ONLINE
Actuator ACT-MOD-01
OFFLINE
Mainboard L3 MB-L3-01
ONLINE
Mainboard L5 MB-L5-01
ONLINE
Remote AC AC-REMOTE-01
OFFLINE
PZEM L3-01 PWR-L3-01
OFFLINE
PZEM L3-02 PWR-L3-02
OFFLINE
PZEM L3-03 PWR-L3-03
OFFLINE
PZEM L3-04 PWR-L3-04
OFFLINE
PZEM L5-01 PWR-L5-01
ONLINE
PZEM L5-02 PWR-L5-02
OFFLINE
PZEM L5-03 PWR-L5-03
OFFLINE
PZEM L5-04 PWR-L5-04
OFFLINE
REPORT FILTER

Periode & Sensor

DATABASE HISTORY
RESET
QUICK RANGE Hari ini 7 hari 30 hari
PERIODE31 Aug 2026sampai 06 Sep 2026
TOTAL DATA47,213sensor readings
MINIMUM-0.50sesuai filter
AVERAGE91.96sesuai filter
MAXIMUM32,564.20sesuai filter
REPORT RESULT

Data Sensor

31/08/2026 — 06/09/2026 EXPORT CSV
NOTANGGALWAKTUDEVICECHANNELSENSORVALUEUNIT
2301 06/09/2026 16:41:00 MB-L5-01Mainboard Lantai 5 L5-BGT-01 Black Globe Temperature 1 29.70 °C
2302 06/09/2026 16:41:00 MB-L5-01Mainboard Lantai 5 L5-SHT-03-T SHT20 3 Temperature 32.20 °C
2303 06/09/2026 16:41:00 MB-L5-01Mainboard Lantai 5 L5-LUX-06 Illuminance / LUX 6 412.60 lux
2304 06/09/2026 16:41:00 MB-L5-01Mainboard Lantai 5 L5-BGT-02 Black Globe Temperature 2 29.50 °C
2305 06/09/2026 16:41:00 MB-L5-01Mainboard Lantai 5 L5-BGT-03 Black Globe Temperature 3 29.80 °C
2306 06/09/2026 16:41:00 MB-L3-01Mainboard Lantai 3 L3-LUX-04 Illuminance / LUX 4 151.60 lux
2307 06/09/2026 16:41:00 MB-L3-01Mainboard Lantai 3 L3-AI-04 Analog Input 4 3.12 V
2308 06/09/2026 16:41:00 MB-L5-01Mainboard Lantai 5 L5-ST-02 Surface Temperature 2 30.00 °C
2309 06/09/2026 16:41:00 MB-L3-01Mainboard Lantai 3 L3-SHT-02-RH SHT20 2 Humidity 39.90 %RH
2310 06/09/2026 16:41:00 MB-L5-01Mainboard Lantai 5 L5-LUX-04 Illuminance / LUX 4 254.00 lux
2311 06/09/2026 16:41:00 MB-L5-01Mainboard Lantai 5 L5-LUX-02 Illuminance / LUX 2 803.90 lux
2312 06/09/2026 16:41:00 MB-L5-01Mainboard Lantai 5 L5-HFT-01 Heat Flow Temperature 1 33.80 °C
2313 06/09/2026 16:41:00 WS-MOD-01Weather Station Module WS-TEMP Suhu Udara 26.20 °C
2314 06/09/2026 16:41:00 MB-L5-01Mainboard Lantai 5 L5-RAD-02 Radiation 2 2.00 W/m²
2315 06/09/2026 16:41:00 MB-L3-01Mainboard Lantai 3 L3-RAD-02 Radiation 2 2.00 W/m²
2316 06/09/2026 16:41:00 MB-L5-01Mainboard Lantai 5 L5-HFT-02 Heat Flow Temperature 2 30.00 °C
2317 06/09/2026 16:41:00 MB-L5-01Mainboard Lantai 5 L5-ST-01 Surface Temperature 1 32.70 °C
2318 06/09/2026 16:41:00 MB-L3-01Mainboard Lantai 3 L3-LUX-05 Illuminance / LUX 5 704.40 lux
2319 06/09/2026 16:41:00 MB-L3-01Mainboard Lantai 3 L3-AI-01 Analog Input 1 3.12 V
2320 06/09/2026 16:41:00 MB-L3-01Mainboard Lantai 3 L3-SHT-01-T SHT20 1 Temperature 30.90 °C
2321 06/09/2026 16:41:00 MB-L3-01Mainboard Lantai 3 L3-AI-05 Analog Input 5 3.12 V
2322 06/09/2026 16:41:00 WS-MOD-01Weather Station Module WS-PRES Tekanan Udara 908.00 hPa
2323 06/09/2026 16:41:00 MB-L5-01Mainboard Lantai 5 L5-SHT-01-T SHT20 1 Temperature 32.30 °C
2324 06/09/2026 16:41:00 MB-L5-01Mainboard Lantai 5 L5-SHT-02-RH SHT20 2 Humidity 39.50 %RH
2325 06/09/2026 16:41:00 MB-L3-01Mainboard Lantai 3 L3-AI-02 Analog Input 2 3.12 V
2326 06/09/2026 16:41:00 MB-L3-01Mainboard Lantai 3 L3-SHT-03-T SHT20 3 Temperature 30.70 °C
2327 06/09/2026 16:41:00 MB-L5-01Mainboard Lantai 5 L5-LUX-03 Illuminance / LUX 3 352.00 lux
2328 06/09/2026 16:41:00 MB-L5-01Mainboard Lantai 5 L5-RAD-01 Radiation 1 2.00 W/m²
2329 06/09/2026 16:41:00 WS-MOD-01Weather Station Module WS-WIND Kecepatan Angin 10.35 m/s
2330 06/09/2026 16:41:00 MB-L5-01Mainboard Lantai 5 L5-SHT-03-RH SHT20 3 Humidity 38.50 %RH
2331 06/09/2026 16:41:00 MB-L3-01Mainboard Lantai 3 L3-AI-06 Analog Input 6 3.12 V
2332 06/09/2026 16:41:00 MB-L5-01Mainboard Lantai 5 L5-SHT-02-T SHT20 2 Temperature 31.60 °C
2333 06/09/2026 16:41:00 MB-L5-01Mainboard Lantai 5 L5-LUX-05 Illuminance / LUX 5 1,441.00 lux
2334 06/09/2026 16:41:00 MB-L3-01Mainboard Lantai 3 L3-LUX-03 Illuminance / LUX 3 278.30 lux
2335 06/09/2026 16:41:00 MB-L5-01Mainboard Lantai 5 L5-AI-01 Analog Input 1 3.05 V
2336 06/09/2026 16:41:00 WS-MOD-01Weather Station Module WS-RH Kelembapan Udara 55.20 %RH
2337 06/09/2026 16:41:00 MB-L5-01Mainboard Lantai 5 L5-AI-02 Analog Input 2 3.05 V
2338 06/09/2026 16:41:00 MB-L3-01Mainboard Lantai 3 L3-LUX-06 Illuminance / LUX 6 913.70 lux
2339 06/09/2026 16:41:00 MB-L3-01Mainboard Lantai 3 L3-AI-03 Analog Input 3 3.12 V
2340 06/09/2026 16:41:00 MB-L5-01Mainboard Lantai 5 L5-LUX-01 Illuminance / LUX 1 198.30 lux
2341 06/09/2026 16:41:00 MB-L5-01Mainboard Lantai 5 L5-AI-03 Analog Input 3 3.05 V
2342 06/09/2026 16:41:00 MB-L3-01Mainboard Lantai 3 L3-SHT-01-RH SHT20 1 Humidity 40.00 %RH
2343 06/09/2026 16:41:00 MB-L5-01Mainboard Lantai 5 L5-AI-04 Analog Input 4 3.05 V
2344 06/09/2026 16:41:00 MB-L3-01Mainboard Lantai 3 L3-LUX-01 Illuminance / LUX 1 229.50 lux
2345 06/09/2026 16:41:00 MB-L3-01Mainboard Lantai 3 L3-RAD-01 Radiation 1 1.00 W/m²
2346 06/09/2026 16:41:00 WS-MOD-01Weather Station Module WS-DIR Arah Angin 153.70 °
2347 06/09/2026 16:41:00 MB-L5-01Mainboard Lantai 5 L5-AI-05 Analog Input 5 3.05 V
2348 06/09/2026 16:40:00 MB-L5-01Mainboard Lantai 5 L5-ST-02 Surface Temperature 2 30.10 °C
2349 06/09/2026 16:40:00 MB-L3-01Mainboard Lantai 3 L3-SHT-02-RH SHT20 2 Humidity 39.80 %RH
2350 06/09/2026 16:40:00 MB-L5-01Mainboard Lantai 5 L5-LUX-04 Illuminance / LUX 4 274.80 lux
2351 06/09/2026 16:40:00 MB-L5-01Mainboard Lantai 5 L5-LUX-02 Illuminance / LUX 2 871.40 lux
2352 06/09/2026 16:40:00 MB-L5-01Mainboard Lantai 5 L5-HFT-01 Heat Flow Temperature 1 33.90 °C
2353 06/09/2026 16:40:00 WS-MOD-01Weather Station Module WS-TEMP Suhu Udara 26.50 °C
2354 06/09/2026 16:40:00 MB-L5-01Mainboard Lantai 5 L5-RAD-02 Radiation 2 2.00 W/m²
2355 06/09/2026 16:40:00 MB-L3-01Mainboard Lantai 3 L3-RAD-02 Radiation 2 2.00 W/m²
2356 06/09/2026 16:40:00 MB-L5-01Mainboard Lantai 5 L5-HFT-02 Heat Flow Temperature 2 30.00 °C
2357 06/09/2026 16:40:00 MB-L5-01Mainboard Lantai 5 L5-ST-01 Surface Temperature 1 32.60 °C
2358 06/09/2026 16:40:00 MB-L3-01Mainboard Lantai 3 L3-LUX-05 Illuminance / LUX 5 763.10 lux
2359 06/09/2026 16:40:00 MB-L3-01Mainboard Lantai 3 L3-AI-01 Analog Input 1 3.12 V
2360 06/09/2026 16:40:00 MB-L3-01Mainboard Lantai 3 L3-SHT-01-T SHT20 1 Temperature 31.00 °C
2361 06/09/2026 16:40:00 MB-L3-01Mainboard Lantai 3 L3-AI-05 Analog Input 5 3.12 V
2362 06/09/2026 16:40:00 WS-MOD-01Weather Station Module WS-PRES Tekanan Udara 908.00 hPa
2363 06/09/2026 16:40:00 MB-L5-01Mainboard Lantai 5 L5-SHT-01-T SHT20 1 Temperature 32.30 °C
2364 06/09/2026 16:40:00 MB-L5-01Mainboard Lantai 5 L5-SHT-02-RH SHT20 2 Humidity 39.60 %RH
2365 06/09/2026 16:40:00 MB-L3-01Mainboard Lantai 3 L3-AI-02 Analog Input 2 3.12 V
2366 06/09/2026 16:40:00 MB-L3-01Mainboard Lantai 3 L3-SHT-03-T SHT20 3 Temperature 30.70 °C
2367 06/09/2026 16:40:00 MB-L5-01Mainboard Lantai 5 L5-LUX-03 Illuminance / LUX 3 385.80 lux
2368 06/09/2026 16:40:00 MB-L5-01Mainboard Lantai 5 L5-RAD-01 Radiation 1 2.00 W/m²
2369 06/09/2026 16:40:00 WS-MOD-01Weather Station Module WS-WIND Kecepatan Angin 6.84 m/s
2370 06/09/2026 16:40:00 MB-L5-01Mainboard Lantai 5 L5-SHT-03-RH SHT20 3 Humidity 38.60 %RH
2371 06/09/2026 16:40:00 MB-L3-01Mainboard Lantai 3 L3-AI-06 Analog Input 6 3.12 V
2372 06/09/2026 16:40:00 MB-L5-01Mainboard Lantai 5 L5-SHT-02-T SHT20 2 Temperature 31.40 °C
2373 06/09/2026 16:40:00 MB-L5-01Mainboard Lantai 5 L5-LUX-05 Illuminance / LUX 5 1,547.60 lux
2374 06/09/2026 16:40:00 MB-L3-01Mainboard Lantai 3 L3-LUX-03 Illuminance / LUX 3 297.00 lux
2375 06/09/2026 16:40:00 MB-L5-01Mainboard Lantai 5 L5-AI-01 Analog Input 1 3.05 V
2376 06/09/2026 16:40:00 WS-MOD-01Weather Station Module WS-RH Kelembapan Udara 54.70 %RH
2377 06/09/2026 16:40:00 MB-L5-01Mainboard Lantai 5 L5-AI-02 Analog Input 2 3.05 V
2378 06/09/2026 16:40:00 MB-L3-01Mainboard Lantai 3 L3-LUX-06 Illuminance / LUX 6 985.50 lux
2379 06/09/2026 16:40:00 MB-L3-01Mainboard Lantai 3 L3-AI-03 Analog Input 3 3.12 V
2380 06/09/2026 16:40:00 MB-L5-01Mainboard Lantai 5 L5-LUX-01 Illuminance / LUX 1 212.20 lux
2381 06/09/2026 16:40:00 MB-L5-01Mainboard Lantai 5 L5-AI-03 Analog Input 3 3.05 V
2382 06/09/2026 16:40:00 MB-L3-01Mainboard Lantai 3 L3-SHT-01-RH SHT20 1 Humidity 40.00 %RH
2383 06/09/2026 16:40:00 MB-L5-01Mainboard Lantai 5 L5-AI-04 Analog Input 4 3.05 V
2384 06/09/2026 16:40:00 MB-L3-01Mainboard Lantai 3 L3-LUX-01 Illuminance / LUX 1 255.50 lux
2385 06/09/2026 16:40:00 MB-L3-01Mainboard Lantai 3 L3-RAD-01 Radiation 1 2.00 W/m²
2386 06/09/2026 16:40:00 WS-MOD-01Weather Station Module WS-DIR Arah Angin 169.00 °
2387 06/09/2026 16:40:00 MB-L5-01Mainboard Lantai 5 L5-AI-05 Analog Input 5 3.05 V
2388 06/09/2026 16:40:00 MB-L5-01Mainboard Lantai 5 L5-AI-06 Analog Input 6 3.05 V
2389 06/09/2026 16:40:00 MB-L3-01Mainboard Lantai 3 L3-SHT-03-RH SHT20 3 Humidity 40.70 %RH
2390 06/09/2026 16:40:00 MB-L5-01Mainboard Lantai 5 L5-SHT-01-RH SHT20 1 Humidity 38.20 %RH
2391 06/09/2026 16:40:00 MB-L3-01Mainboard Lantai 3 L3-LUX-02 Illuminance / LUX 2 370.50 lux
2392 06/09/2026 16:40:00 MB-L3-01Mainboard Lantai 3 L3-SHT-02-T SHT20 2 Temperature 30.90 °C
2393 06/09/2026 16:40:00 MB-L5-01Mainboard Lantai 5 L5-BGT-01 Black Globe Temperature 1 29.60 °C
2394 06/09/2026 16:40:00 MB-L5-01Mainboard Lantai 5 L5-SHT-03-T SHT20 3 Temperature 32.20 °C
2395 06/09/2026 16:40:00 MB-L5-01Mainboard Lantai 5 L5-LUX-06 Illuminance / LUX 6 439.20 lux
2396 06/09/2026 16:40:00 MB-L5-01Mainboard Lantai 5 L5-BGT-02 Black Globe Temperature 2 29.40 °C
2397 06/09/2026 16:40:00 MB-L5-01Mainboard Lantai 5 L5-BGT-03 Black Globe Temperature 3 29.90 °C
2398 06/09/2026 16:40:00 MB-L3-01Mainboard Lantai 3 L3-LUX-04 Illuminance / LUX 4 162.00 lux
2399 06/09/2026 16:40:00 MB-L3-01Mainboard Lantai 3 L3-AI-04 Analog Input 4 3.12 V
2400 06/09/2026 16:39:00 MB-L3-01Mainboard Lantai 3 L3-AI-05 Analog Input 5 3.12 V
Menampilkan maksimal 100 data per halaman